Time,TemperatureF,DewpointF,PressureIn,WindDirection,WindDirectionDegrees,WindSpeedMPH,WindSpeedGustMPH,Humidity,HourlyPrecipIn,Conditions,Clouds,dailyrainin,SoftwareType,DateUTC
2013-06-08 00:01:00,66.0,50.0,29.54,NNE,13,7.0,19.0,57,0.01,,,0.02,,2013-06-08 06:01:00,
2013-06-08 00:12:00,66.0,50.0,29.54,NNE,13,7.0,19.0,57,0.01,,,0.02,,2013-06-08 06:12:00,
2013-06-08 00:22:00,66.0,51.0,29.55,North,351,4.0,11.0,59,0.01,,,0.02,,2013-06-08 06:22:00,
2013-06-08 00:31:00,67.0,49.0,29.55,North,5,7.0,16.0,52,0.01,,,0.02,,2013-06-08 06:31:00,
2013-06-08 00:42:00,67.0,49.0,29.55,North,5,7.0,16.0,52,0.01,,,0.02,,2013-06-08 06:42:00,
2013-06-08 00:52:00,68.0,47.0,29.55,NNE,13,6.0,18.0,47,0.01,,,0.02,,2013-06-08 06:52:00,
2013-06-08 01:02:00,67.0,49.0,29.56,NNE,15,3.0,12.0,53,0.00,,,0.02,,2013-06-08 07:02:00,
2013-06-08 01:12:00,67.0,49.0,29.56,NNE,15,3.0,12.0,53,0.00,,,0.02,,2013-06-08 07:12:00,
2013-06-08 01:22:00,66.0,48.0,29.57,North,355,5.0,10.0,52,0.00,,,0.02,,2013-06-08 07:22:00,
2013-06-08 01:32:00,66.0,48.0,29.57,North,360,4.0,9.0,53,0.00,,,0.02,,2013-06-08 07:32:00,
2013-06-08 01:42:00,66.0,48.0,29.57,North,360,4.0,9.0,53,0.00,,,0.02,,2013-06-08 07:42:00,
2013-06-08 01:52:00,66.0,47.0,29.57,NNW,348,6.0,12.0,50,0.00,,,0.02,,2013-06-08 07:52:00,
2013-06-08 02:02:00,66.0,47.0,29.57,NNW,335,1.0,13.0,50,0.00,,,0.02,,2013-06-08 08:02:00,
2013-06-08 02:11:00,66.0,47.0,29.57,NNW,335,1.0,13.0,50,0.00,,,0.02,,2013-06-08 08:11:00,
2013-06-08 02:22:00,67.0,44.0,29.58,North,5,5.0,13.0,43,0.00,,,0.02,,2013-06-08 08:22:00,
2013-06-08 02:32:00,67.0,43.0,29.58,NNE,33,6.0,15.0,42,0.00,,,0.02,,2013-06-08 08:32:00,
2013-06-08 02:42:00,67.0,43.0,29.58,NNE,33,6.0,15.0,42,0.00,,,0.02,,2013-06-08 08:42:00,
2013-06-08 02:52:00,66.0,43.0,29.59,NNE,30,6.0,14.0,44,0.00,,,0.02,,2013-06-08 08:52:00,
2013-06-08 03:01:00,66.0,43.0,29.61,NNE,13,5.0,12.0,44,0.00,,,0.02,,2013-06-08 09:01:00,
2013-06-08 03:12:00,66.0,43.0,29.61,NNE,13,5.0,12.0,44,0.00,,,0.02,,2013-06-08 09:12:00,
2013-06-08 03:22:00,65.0,43.0,29.62,North,11,3.0,11.0,44,0.00,,,0.02,,2013-06-08 09:22:00,
2013-06-08 03:33:00,65.0,41.0,29.62,North,355,3.0,14.0,42,0.00,,,0.02,,2013-06-08 09:33:00,
2013-06-08 03:42:00,65.0,41.0,29.62,North,355,3.0,14.0,42,0.00,,,0.02,,2013-06-08 09:42:00,
2013-06-08 03:53:00,65.0,41.0,29.63,North,350,3.0,11.0,42,0.00,,,0.02,,2013-06-08 09:53:00,
2013-06-08 04:02:00,64.0,42.0,29.65,NNW,348,3.0,9.0,45,0.00,,,0.02,,2013-06-08 10:02:00,
2013-06-08 04:12:00,64.0,42.0,29.65,NNW,348,3.0,9.0,45,0.00,,,0.02,,2013-06-08 10:12:00,
2013-06-08 04:22:00,64.0,42.0,29.65,NNW,348,3.0,9.0,45,0.00,,,0.02,,2013-06-08 10:22:00,
2013-06-08 04:33:00,63.0,42.0,29.66,NW,313,5.0,8.0,47,0.00,,,0.02,,2013-06-08 10:33:00,
2013-06-08 04:42:00,63.0,42.0,29.66,NW,313,5.0,8.0,47,0.00,,,0.02,,2013-06-08 10:42:00,
2013-06-08 04:53:00,62.0,42.0,29.67,NW,313,4.0,7.0,48,0.00,,,0.02,,2013-06-08 10:53:00,
2013-06-08 05:02:00,62.0,42.0,29.67,NW,313,7.0,12.0,48,0.00,,,0.02,,2013-06-08 11:02:00,
2013-06-08 05:12:00,62.0,42.0,29.67,NW,313,7.0,12.0,48,0.00,,,0.02,,2013-06-08 11:12:00,
2013-06-08 05:22:00,62.0,42.0,29.67,NW,306,4.0,10.0,47,0.00,,,0.02,,2013-06-08 11:22:00,
2013-06-08 05:32:00,63.0,42.0,29.67,NNW,334,5.0,16.0,46,0.00,,,0.02,,2013-06-08 11:32:00,
2013-06-08 05:42:00,63.0,42.0,29.67,NNW,334,5.0,16.0,46,0.00,,,0.02,,2013-06-08 11:42:00,
2013-06-08 05:52:00,63.0,42.0,29.68,NNW,338,4.0,13.0,47,0.00,,,0.02,,2013-06-08 11:52:00,
2013-06-08 06:01:00,62.0,42.0,29.69,NNW,336,2.0,11.0,48,0.00,,,0.02,,2013-06-08 12:01:00,
2013-06-08 06:12:00,62.0,42.0,29.69,NNW,336,2.0,11.0,48,0.00,,,0.02,,2013-06-08 12:12:00,
2013-06-08 06:22:00,62.0,43.0,29.70,NNW,336,0.0,10.0,50,0.00,,,0.02,,2013-06-08 12:22:00,
2013-06-08 06:42:00,62.0,44.0,29.70,NNW,336,0.0,3.0,51,0.00,,,0.02,,2013-06-08 12:42:00,
2013-06-08 06:52:00,62.0,44.0,29.70,NNW,336,0.0,1.0,51,0.00,,,0.02,,2013-06-08 12:52:00,
2013-06-08 07:02:00,61.0,43.0,29.71,NNW,336,0.0,2.0,52,0.00,,,0.02,,2013-06-08 13:02:00,
2013-06-08 07:12:00,61.0,43.0,29.71,NNW,336,0.0,2.0,52,0.00,,,0.02,,2013-06-08 13:12:00,
2013-06-08 07:22:00,61.0,43.0,29.72,NNW,336,0.0,0.0,52,0.00,,,0.02,,2013-06-08 13:22:00,
2013-06-08 07:32:00,62.0,44.0,29.72,NNW,336,0.0,2.0,52,0.00,,,0.02,,2013-06-08 13:32:00,
2013-06-08 07:42:00,62.0,44.0,29.72,NNW,336,0.0,2.0,52,0.00,,,0.02,,2013-06-08 13:42:00,
2013-06-08 07:52:00,62.0,44.0,29.73,NNW,336,0.0,6.0,52,0.00,,,0.02,,2013-06-08 13:52:00,
2013-06-08 08:02:00,62.0,46.0,29.73,NNW,336,0.0,2.0,55,0.00,,,0.02,,2013-06-08 14:02:00,
2013-06-08 08:11:00,62.0,46.0,29.73,NNW,336,0.0,2.0,55,0.00,,,0.02,,2013-06-08 14:11:00,
2013-06-08 08:21:00,62.0,45.0,29.73,NNW,336,0.0,2.0,53,0.00,,,0.02,,2013-06-08 14:21:00,
2013-06-08 08:32:00,63.0,45.0,29.73,NNW,336,0.0,1.0,51,0.00,,,0.02,,2013-06-08 14:32:00,
2013-06-08 08:42:00,63.0,45.0,29.73,NNW,336,0.0,1.0,51,0.00,,,0.02,,2013-06-08 14:42:00,
2013-06-08 08:52:00,64.0,44.0,29.73,NNW,336,1.0,6.0,49,0.00,,,0.02,,2013-06-08 14:52:00,
2013-06-08 09:02:00,65.0,41.0,29.73,NW,319,6.0,15.0,41,0.00,,,0.02,,2013-06-08 15:02:00,
2013-06-08 09:12:00,65.0,41.0,29.73,NW,319,6.0,15.0,41,0.00,,,0.02,,2013-06-08 15:12:00,
2013-06-08 09:21:00,65.0,41.0,29.73,NW,319,6.0,15.0,41,0.00,,,0.02,,2013-06-08 15:21:00,
2013-06-08 09:32:00,67.0,41.0,29.73,NNW,329,8.0,18.0,39,0.00,,,0.02,,2013-06-08 15:32:00,
2013-06-08 09:42:00,67.0,41.0,29.73,NNW,329,8.0,18.0,39,0.00,,,0.02,,2013-06-08 15:42:00,
2013-06-08 09:53:00,68.0,41.0,29.73,NNW,328,7.0,20.0,37,0.00,,,0.02,,2013-06-08 15:53:00,
2013-06-08 10:02:00,68.0,39.0,29.72,NNW,335,10.0,22.0,35,0.00,,,0.02,,2013-06-08 16:02:00,
2013-06-08 10:12:00,68.0,39.0,29.72,NNW,335,10.0,22.0,35,0.00,,,0.02,,2013-06-08 16:12:00,
2013-06-08 10:23:00,69.0,39.0,29.72,WNW,287,11.0,24.0,34,0.00,,,0.02,,2013-06-08 16:23:00,
2013-06-08 10:32:00,69.0,40.0,29.72,NNW,329,10.0,22.0,35,0.00,,,0.02,,2013-06-08 16:32:00,
2013-06-08 10:42:00,69.0,40.0,29.72,NNW,329,10.0,22.0,35,0.00,,,0.02,,2013-06-08 16:42:00,
2013-06-08 10:53:00,70.0,40.0,29.72,NW,304,13.0,21.0,33,0.00,,,0.02,,2013-06-08 16:53:00,
2013-06-08 11:02:00,70.0,38.0,29.71,WNW,296,12.0,20.0,31,0.00,,,0.02,,2013-06-08 17:02:00,
2013-06-08 11:12:00,70.0,38.0,29.71,WNW,296,12.0,20.0,31,0.00,,,0.02,,2013-06-08 17:12:00,
2013-06-08 11:22:00,71.0,37.0,29.71,WNW,295,11.0,20.0,29,0.00,,,0.02,,2013-06-08 17:22:00,
2013-06-08 11:32:00,71.0,40.0,29.71,NNW,331,7.0,19.0,32,0.00,,,0.02,,2013-06-08 17:32:00,
2013-06-08 11:42:00,71.0,40.0,29.71,NNW,331,7.0,19.0,32,0.00,,,0.02,,2013-06-08 17:42:00,
2013-06-08 11:52:00,72.0,36.0,29.71,West,275,14.0,22.0,27,0.00,,,0.02,,2013-06-08 17:52:00,
2013-06-08 12:02:00,71.0,37.0,29.71,NW,309,11.0,22.0,29,0.00,,,0.02,,2013-06-08 18:02:00,
2013-06-08 12:12:00,71.0,37.0,29.71,NW,309,11.0,22.0,29,0.00,,,0.02,,2013-06-08 18:12:00,
2013-06-08 12:22:00,72.0,37.0,29.72,NW,308,9.0,20.0,28,0.00,,,0.02,,2013-06-08 18:22:00,
2013-06-08 12:32:00,72.0,36.0,29.71,NNW,336,11.0,19.0,27,0.00,,,0.02,,2013-06-08 18:32:00,
2013-06-08 12:41:00,72.0,36.0,29.71,NNW,336,11.0,19.0,27,0.00,,,0.02,,2013-06-08 18:41:00,
2013-06-08 12:52:00,73.0,38.0,29.71,NNW,337,9.0,18.0,28,0.00,,,0.02,,2013-06-08 18:52:00,
2013-06-08 13:02:00,73.0,38.0,29.70,NNW,330,6.0,19.0,28,0.00,,,0.02,,2013-06-08 19:02:00,
2013-06-08 13:12:00,73.0,38.0,29.70,NNW,330,6.0,19.0,28,0.00,,,0.02,,2013-06-08 19:12:00,
2013-06-08 13:22:00,73.0,37.0,29.70,WNW,288,4.0,19.0,27,0.00,,,0.02,,2013-06-08 19:22:00,
2013-06-08 13:32:00,73.0,38.0,29.70,NW,304,8.0,15.0,28,0.00,,,0.02,,2013-06-08 19:32:00,
2013-06-08 13:42:00,73.0,38.0,29.70,NW,304,8.0,15.0,28,0.00,,,0.02,,2013-06-08 19:42:00,
2013-06-08 13:52:00,73.0,38.0,29.70,WNW,292,3.0,21.0,28,0.00,,,0.02,,2013-06-08 19:52:00,
2013-06-08 14:02:00,74.0,37.0,29.70,WNW,291,10.0,16.0,26,0.00,,,0.02,,2013-06-08 20:02:00,
2013-06-08 14:12:00,74.0,37.0,29.70,WNW,291,10.0,16.0,26,0.00,,,0.02,,2013-06-08 20:12:00,
2013-06-08 14:22:00,75.0,37.0,29.70,West,273,7.0,14.0,25,0.00,,,0.02,,2013-06-08 20:22:00,
2013-06-08 14:32:00,76.0,38.0,29.69,WNW,284,1.0,14.0,25,0.00,,,0.02,,2013-06-08 20:32:00,
2013-06-08 14:42:00,76.0,38.0,29.69,WNW,284,1.0,14.0,25,0.00,,,0.02,,2013-06-08 20:42:00,
2013-06-08 14:52:00,76.0,37.0,29.69,WNW,303,3.0,17.0,24,0.00,,,0.02,,2013-06-08 20:52:00,
2013-06-08 15:02:00,76.0,37.0,29.69,NW,306,3.0,11.0,24,0.00,,,0.02,,2013-06-08 21:02:00,
2013-06-08 15:12:00,76.0,37.0,29.69,NW,306,3.0,11.0,24,0.00,,,0.02,,2013-06-08 21:12:00,
2013-06-08 15:22:00,76.0,34.0,29.68,NW,314,4.0,13.0,22,0.00,,,0.02,,2013-06-08 21:22:00,
2013-06-08 15:33:00,77.0,34.0,29.68,WNW,297,9.0,16.0,21,0.00,,,0.02,,2013-06-08 21:33:00,
2013-06-08 15:43:00,77.0,34.0,29.68,WNW,297,9.0,16.0,21,0.00,,,0.02,,2013-06-08 21:43:00,
2013-06-08 15:52:00,77.0,34.0,29.68,WNW,295,7.0,14.0,21,0.00,,,0.02,,2013-06-08 21:52:00,
2013-06-08 16:02:00,77.0,33.0,29.67,NW,320,4.0,17.0,20,0.00,,,0.02,,2013-06-08 22:02:00,
2013-06-08 16:12:00,77.0,33.0,29.67,NW,320,4.0,17.0,20,0.00,,,0.02,,2013-06-08 22:12:00,
2013-06-08 16:22:00,77.0,32.0,29.68,NW,326,5.0,17.0,19,0.00,,,0.02,,2013-06-08 22:22:00,
2013-06-08 16:33:00,78.0,32.0,29.67,WNW,301,5.0,16.0,19,0.00,,,0.01,,2013-06-08 22:33:00,
2013-06-08 16:42:00,78.0,31.0,29.67,WNW,295,4.0,15.0,18,0.00,,,0.01,,2013-06-08 22:42:00,
2013-06-08 16:52:00,78.0,31.0,29.67,WNW,295,4.0,15.0,18,0.00,,,0.01,,2013-06-08 22:52:00,
2013-06-08 17:02:00,78.0,31.0,29.67,NW,321,9.0,15.0,18,0.00,,,0.01,,2013-06-08 23:02:00,
2013-06-08 17:12:00,78.0,31.0,29.67,NW,321,9.0,15.0,18,0.00,,,0.01,,2013-06-08 23:12:00,
2013-06-08 17:22:00,79.0,33.0,29.67,NW,323,2.0,9.0,19,0.00,,,0.01,,2013-06-08 23:22:00,
2013-06-08 17:32:00,79.0,32.0,29.67,NNW,333,6.0,15.0,18,0.00,,,0.01,,2013-06-08 23:32:00,
2013-06-08 17:42:00,79.0,32.0,29.67,NNW,333,6.0,15.0,18,0.00,,,0.01,,2013-06-08 23:42:00,
2013-06-08 17:52:00,79.0,30.0,29.67,NW,314,5.0,11.0,17,0.00,,,0.01,,2013-06-08 23:52:00,
2013-06-08 18:02:00,79.0,30.0,29.67,NNW,327,9.0,16.0,17,0.00,,,0.01,,2013-06-09 00:02:00,
2013-06-08 18:12:00,79.0,30.0,29.67,NNW,327,9.0,16.0,17,0.00,,,0.01,,2013-06-09 00:12:00,
2013-06-08 18:22:00,79.0,32.0,29.67,NW,314,3.0,10.0,18,0.00,,,0.01,,2013-06-09 00:22:00,
2013-06-08 18:32:00,79.0,29.0,29.67,NNW,328,3.0,15.0,16,0.00,,,0.01,,2013-06-09 00:32:00,
2013-06-08 18:42:00,79.0,29.0,29.67,NNW,328,3.0,15.0,16,0.00,,,0.01,,2013-06-09 00:42:00,
2013-06-08 18:51:00,79.0,30.0,29.67,NNW,327,6.0,15.0,17,0.00,,,0.01,,2013-06-09 00:51:00,
2013-06-08 19:02:00,79.0,30.0,29.67,NNW,327,9.0,14.0,17,0.00,,,0.01,,2013-06-09 01:02:00,
2013-06-08 19:12:00,78.0,28.0,29.67,NW,323,8.0,18.0,16,0.00,,,0.01,,2013-06-09 01:12:00,
2013-06-08 19:22:00,78.0,28.0,29.67,NW,323,8.0,18.0,16,0.00,,,0.01,,2013-06-09 01:22:00,
2013-06-08 19:32:00,78.0,30.0,29.67,WNW,299,2.0,11.0,17,0.00,,,0.01,,2013-06-09 01:32:00,
2013-06-08 19:42:00,78.0,30.0,29.67,WNW,299,2.0,11.0,17,0.00,,,0.01,,2013-06-09 01:42:00,
2013-06-08 19:52:00,78.0,34.0,29.67,WNW,302,0.0,6.0,20,0.00,,,0.01,,2013-06-09 01:52:00,
2013-06-08 20:02:00,77.0,35.0,29.67,WNW,302,0.0,3.0,22,0.00,,,0.01,,2013-06-09 02:02:00,
2013-06-08 20:12:00,77.0,35.0,29.67,WNW,302,0.0,3.0,22,0.00,,,0.01,,2013-06-09 02:12:00,
2013-06-08 20:22:00,76.0,37.0,29.68,WNW,302,3.0,9.0,24,0.00,,,0.01,,2013-06-09 02:22:00,
2013-06-08 20:32:00,75.0,40.0,29.68,NW,311,2.0,9.0,28,0.00,,,0.01,,2013-06-09 02:32:00,
2013-06-08 20:42:00,75.0,40.0,29.68,NW,311,2.0,9.0,28,0.00,,,0.01,,2013-06-09 02:42:00,
2013-06-08 20:52:00,74.0,41.0,29.68,NW,311,2.0,6.0,30,0.00,,,0.01,,2013-06-09 02:52:00,
2013-06-08 21:02:00,72.0,42.0,29.68,NW,317,2.0,10.0,34,0.00,,,0.01,,2013-06-09 03:02:00,
2013-06-08 21:12:00,72.0,42.0,29.68,NW,317,2.0,10.0,34,0.00,,,0.01,,2013-06-09 03:12:00,
2013-06-08 21:22:00,71.0,43.0,29.68,NW,319,1.0,9.0,37,0.00,,,0.01,,2013-06-09 03:22:00,
2013-06-08 21:32:00,69.0,43.0,29.69,NW,319,1.0,5.0,39,0.00,,,0.01,,2013-06-09 03:32:00,
2013-06-08 21:43:00,69.0,43.0,29.69,NW,319,1.0,5.0,39,0.00,,,0.01,,2013-06-09 03:43:00,
2013-06-08 21:53:00,69.0,45.0,29.70,NW,319,1.0,7.0,42,0.00,,,0.01,,2013-06-09 03:53:00,
2013-06-08 22:02:00,68.0,45.0,29.70,NW,319,0.0,5.0,43,0.00,,,0.01,,2013-06-09 04:02:00,
2013-06-08 22:12:00,68.0,45.0,29.70,NW,319,0.0,5.0,43,0.00,,,0.01,,2013-06-09 04:12:00,
2013-06-08 22:22:00,67.0,46.0,29.71,NW,319,1.0,4.0,46,0.00,,,0.01,,2013-06-09 04:22:00,
2013-06-08 22:32:00,66.0,45.0,29.71,NW,319,1.0,8.0,47,0.00,,,0.01,,2013-06-09 04:32:00,
2013-06-08 22:42:00,66.0,45.0,29.71,NW,319,1.0,8.0,47,0.00,,,0.01,,2013-06-09 04:42:00,
2013-06-08 22:52:00,66.0,45.0,29.72,NW,319,1.0,5.0,47,0.00,,,0.01,,2013-06-09 04:52:00,
2013-06-08 23:02:00,66.0,46.0,29.72,NW,319,3.0,7.0,48,0.00,,,0.01,,2013-06-09 05:02:00,
2013-06-08 23:12:00,66.0,46.0,29.72,NW,319,3.0,7.0,48,0.00,,,0.01,,2013-06-09 05:12:00,
2013-06-08 23:22:00,65.0,45.0,29.72,NW,319,0.0,4.0,49,0.00,,,0.01,,2013-06-09 05:22:00,
2013-06-08 23:32:00,65.0,46.0,29.72,NW,319,0.0,7.0,50,0.00,,,0.01,,2013-06-09 05:32:00,
2013-06-08 23:42:00,65.0,46.0,29.72,NW,319,0.0,7.0,50,0.00,,,0.01,,2013-06-09 05:42:00,
2013-06-08 23:52:00,64.0,45.0,29.73,NW,319,0.0,6.0,50,0.00,,,0.01,,2013-06-09 05:52:00,